STARLINK-11590, 63112

Orbit data source: Space-Track

STARLINK-11590, 63112 is a payload satellite owned by SpaceX/Seattle (US) in LEO that was launched on Thu, 27 Feb 2025 UTC via an FALCON 9 launch vehicle from the Air Force Eastern Test Range (AFETR). Payload-class satellites include a variety of spacecraft equipped with specific instruments for various scientific and technological missions. These include communications satellites like Starlink; space stations such as the ISS; scientific satellites like the Hubble; Earth observation satellites from companies like Planet Labs, Umbra, and HawkEye 360; GPS; miniature CubeSats for education and research; and military/defense satellites.

Loading next visibility...
Identifier
63112, 2025-039J
Orbit
LEO
Country
Flag of USUS
Related business
Manufacturer
SpaceX/Seattle
Mission
Operational Commercial Communications
Bus & Motor
STARLINK V2MD, Unknown motor
Mass
960 kg wet, ~910 kg dry
Launch date (UTC)
2025-02-27 (8 months ago)
Launch vehicle
FALCON 9
Launch site
Air Force Eastern Test Range (AFETR)
Object type
Payload
Rocket body
Debris
Shape & HBR
Box + 2 Pan, 18.1 m
Radar Cross Section
36.964 m², Large (>1 m²)

Expand to show TLE details & history
Last TLE update: 20 hours ago

TLE from 20 hours ago
0 STARLINK-11590
1 63112U 25039J   25309.91292087  .00260791  00000-0  19652-2 0  9999
2 63112  43.0001 263.3714 0001485 250.5131 109.5577 15.70932345 40146
Epoch: 2025-11-05T21:54Z
TLE epoch observation values (Epoch: 2025-11-05T21:54:36.363Z)
Latitude
0.00004°
Longitude
-110.65884°
Altitude
356.337 km
Speed
7.697 km/s
True Right ascension
17h 33m 29s
True Declination
0° 00' 00"
Sunlit
Object was in daylight at epoch
Visualization orbit readout
Latitude
Unknown
Longitude
Unknown
Altitude
Unknown
Speed
Unknown
Apparent Right ascension
Unknown
Apparent Declination
Unknown
Sunlit
N/A
Visualization observer readout
Local Sidereal Time
14:06:03
Azimuth
Unknown
Elevation
Unknown
Doppler factor
Unknown
Orbital elements
Apogee altitude
359.213 km
Perigee altitude
357.212 km
Semi-major axis
6,736.35 km
Eccentricity
0.00015
Inclination
43.0001°
RAAN
263.3714°
Arg. of periapsis
250.5131°
True anomaly
109.57373°
Mean anomaly
109.5577°
Eccentric anomaly
109.56572°
Mean motion
3.9256 °/min
Orbital period
91.71 mins
BSTAR
0.0019652
Loading maneuver chart data...
Computing Atmospheric mass density...
Loading historical data...
Loading historical data...
Loading historical data...
Loading historical data...
Loading historical data...
Loading historical data...
Loading historical data...

Documentation

Showing up to 5 results
|